SCP
1 1 1 1 1 1 1 1 1 2 2 2 2 2 2 2 2 2 2 2 3 3 3 3 3 2 3 5 6 4 3 3 3 2 1 1 1 1 1 1 1 2 2 2
2 1 1 1 1 1 1 1 2 2 2 1 1 1 1 2 2 2 2 3 3 4 4 4 4 3 4 6 6 4 3 4 3 2 1 1 1 1 1 1 1 2 2 2
1 1 1 1 1 1 1 1 2 2 1 1 1 1 1 1 1 2 2 3 4 4 5 5 4 4 5 6 5 4 4 4 4 2 1 1 1 1 1 1 1 1 1 2
1 0 1 1 1 1 1 1 1 2 2 2 2 2 2 2 1 2 2 3 3 4 5 5 4 4 5 5 5 4 4 4 4 2 2 1 2 2 1 1 1 1 1 1
0 0 1 1 1 1 1 1 1 2 2 3 2 2 2 2 2 2 2 3 3 3 4 4 4 4 5 5 5 5 4 4 3 3 2 2 2 2 2 1 1 1 1 1
0 0 1 1 1 1 1 1 2 2 3 3 2 2 2 2 2 2 2 3 3 2 2 3 4 5 6 6 6 5 5 5 5 5 3 3 3 3 2 2 2 1 1 1
0 0 0 0 1 1 1 1 2 3 3 3 3 3 2 2 2 2 2 3 3 3 2 3 4 5 6 6 6 6 6 8 8 6 4 3 3 3 3 3 2 2 2 2
0 0 0 0 1 1 1 1 2 3 3 3 3 4 4 3 2 2 2 2 3 3 4 4 4 5 5 6 6 6 7 8 8 5 4 3 3 3 3 3 3 3 4 4
0 0 0 0 1 1 1 2 2 2 3 3 3 4 4 4 3 2 2 2 2 3 5 5 5 5 5 5 6 6 6 6 5 4 4 4 3 3 3 3 4 4 5 6
1 1 1 1 1 2 2 3 3 3 3 3 3 3 4 4 3 2 2 2 2 3 4 5 5 5 5 5 5 5 4 4 3 3 4 4 4 3 3 4 4 5 5 6
1 1 1 1 1 2 3 3 3 3 3 3 2 2 2 2 2 2 2 2 2 3 3 3 4 4 5 5 5 4 3 3 3 3 4 5 4 4 4 4 4 4 4 4
1 1 1 1 1 2 3 3 4 3 3 3 2 2 2 2 2 2 2 3 3 2 2 2 2 3 4 4 4 3 3 3 4 4 5 5 5 4 3 3 2 2 2 2
1 1 1 2 2 2 2 3 3 3 3 2 2 2 2 2 2 2 3 4 3 2 1 1 2 3 4 4 3 3 3 4 5 6 6 5 4 3 3 2 1 1 1 1
1 2 4 5 4 3 3 3 3 3 2 2 2 2 2 2 2 2 3 4 3 2 2 2 3 3 4 4 4 3 4 6 7 7 6 4 3 3 2 3 3 3 2 1
2 5 8 10 8 5 5 4 4 3 3 3 3 3 3 3 3 3 3 4 3 3 2 3 3 3 4 4 4 4 5 6 6 6 4 3 3 2 2 2 4 4 4 3
7 9 12 12 9 7 6 5 4 4 4 4 4 4 4 3 3 3 3 3 3 3 3 3 3 3 3 4 4 4 4 4 5 5 4 3 2 1 1 1 3 4 5 5
12 13 14 12 9 6 6 5 5 5 6 6 5 4 4 4 4 3 3 3 3 2 2 2 2 2 2 3 4 4 3 3 3 4 4 3 2 1 1 1 1 3 4 5
12 12 11 9 7 6 6 6 7 6 6 5 5 5 5 5 4 4 3 3 2 2 1 1 1 1 1 1 2 3 2 2 2 2 2 2 2 1 1 0 0 1 2 3
8 8 7 6 6 5 6 6 6 5 5 4 4 5 5 5 4 4 3 3 2 1 1 0 0 0 0 0 1 1 1 1 2 2 2 2 1 1 1 1 0 0 1 2
6 6 6 6 5 5 5 4 4 4 3 3 4 5 5 4 3 2 2 2 1 1 0 0 0 0 0 0 0 0 1 1 1 1 1 1 1 1 1 1 1 1 1 1
4 5 6 6 6 5 5 4 3 3 3 3 4 5 5 4 2 1 1 1 0 0 0 0 0 0 0 0 0 0 1 1 1 1 1 1 1 1 1 1 1 1 1 1
3 4 5 6 6 5 5 4 4 4 3 3 4 6 5 4 2 1 1 0 0 0 0 0 0 0 0 0 0 0 1 1 1 1 1 1 1 1 1 1 1 1 2 3
2 2 4 5 5 5 5 5 4 4 4 5 6 6 5 3 2 1 1 0 0 0 0 0 0 0 0 0 0 1 1 1 1 1 1 1 0 0 0 0 0 1 3 4
2 2 3 4 5 4 4 4 4 4 5 6 6 5 4 3 2 1 1 0 0 0 0 0 0 0 0 0 0 1 1 1 1 1 1 1 0 0 1 1 1 3 4 5
2 2 2 3 4 4 4 4 4 5 6 6 5 4 3 2 1 1 0 0 0 0 0 0 0 0 0 0 0 0 0 1 1 1 1 1 1 1 1 2 3 4 4 4
4 3 3 3 4 3 3 4 4 6 7 6 4 3 2 1 1 1 0 0 0 0 0 0 0 0 0 0 0 0 0 0 0 0 0 0 1 1 1 2 2 3 3 3
4 4 4 5 4 3 3 3 5 6 6 5 3 1 1 1 1 0 0 0 0 0 0 0 0 0 0 0 0 0 0 0 0 0 0 0 0 1 1 1 1 1 2 2
Wind_Speed
2 2 3 3 3 5 4 7 8 7 6 6 5 4 4 3 3 4 5 6 6 6 5 4 4 5 5 5 5 5 5 4 3 2 2 2 2 1 1 1 1 1 2 1
1 1 2 2 1 4 3 3 3 3 4 4 2 1 1 3 4 4 4 5 6 6 6 6 6 6 5 5 5 5 5 4 3 3 3 2 2 2 2 2 2 2 2 1
1 2 2 1 2 4 3 2 5 5 5 1 1 1 3 4 5 5 5 5 5 6 5 5 5 6 6 6 5 5 4 4 3 3 3 2 2 3 2 1 2 2 2 2
2 2 4 6 2 3 4 1 1 2 1 2 3 3 2 2 3 3 3 4 4 4 4 4 5 5 5 5 5 5 5 4 4 4 4 3 3 3 2 1 2 1 1 1
4 3 3 4 1 2 4 1 0 2 1 1 2 2 2 1 2 3 3 3 3 3 4 5 6 6 6 5 5 5 5 5 4 5 4 3 3 3 2 2 1 1 1 1
4 4 6 6 3 1 4 1 2 2 2 2 3 2 3 2 1 1 1 2 2 3 4 4 4 6 7 6 5 6 6 6 5 4 4 4 4 3 2 2 2 1 1 0
4 3 6 4 4 2 4 6 2 2 3 3 3 4 4 1 1 2 2 2 3 4 4 3 4 5 5 5 5 4 3 3 3 3 3 4 3 3 3 3 2 2 1 0
4 3 6 3 2 4 5 2 2 2 2 3 3 2 1 1 1 1 2 3 3 3 3 2 4 5 4 4 3 3 3 4 4 4 4 4 4 3 3 3 3 2 2 1
6 6 4 2 2 2 2 1 1 1 1 2 2 2 1 1 1 1 2 2 3 3 2 2 3 4 4 4 3 4 4 4 4 4 3 4 4 4 3 3 3 2 2 2
0 2 2 2 1 1 1 1 0 1 1 1 2 3 2 2 2 2 1 2 2 3 3 2 2 3 4 3 4 4 4 3 3 4 3 3 3 3 3 4 4 3 3 3
1 3 3 3 2 1 1 1 1 1 1 2 3 3 4 3 3 3 2 2 3 3 4 4 3 2 3 4 4 4 4 3 3 3 3 3 2 2 3 4 4 5 5 4
5 5 4 5 4 2 1 1 0 1 2 2 3 4 4 3 3 3 3 3 3 4 4 4 3 3 3 4 5 5 4 3 3 2 2 2 3 1 1 3 4 6 6 6
5 3 3 5 4 2 2 2 2 2 3 3 3 3 3 3 3 3 3 3 4 5 4 4 4 4 3 4 4 5 5 4 3 3 3 3 3 3 2 1 2 3 5 7
3 1 2 3 3 3 2 2 2 2 2 2 2 2 2 2 2 3 3 3 3 3 3 4 4 3 3 3 4 4 4 5 4 3 3 3 3 4 3 3 3 2 3 5
3 2 4 4 3 2 2 1 1 2 2 2 1 1 2 3 3 3 3 2 2 2 2 3 4 3 2 3 4 4 4 3 3 2 2 3 3 3 3 4 4 3 2 2
2 1 2 2 3 3 3 2 2 3 3 3 3 3 3 3 3 2 2 3 3 3 3 3 3 3 3 3 4 4 3 5 4 3 2 2 2 2 3 3 4 4 4 3
2 3 3 3 4 5 4 4 4 4 4 4 4 4 2 2 2 2 2 2 2 2 2 2 2 2 2 3 4 3 3 3 4 3 3 3 3 3 3 3 3 4 4 3
6 6 6 5 5 5 5 4 4 4 4 4 3 2 3 4 4 4 3 2 2 1 1 1 1 1 1 3 3 3 3 3 3 3 3 3 3 4 4 4 4 4 3 2
4 4 4 5 5 5 5 4 4 4 4 3 3 4 4 4 4 3 2 2 2 1 2 2 1 1 2 3 2 2 3 3 3 3 3 4 4 3 3 3 3 3 3 2
3 4 4 3 3 4 4 4 3 3 3 3 3 3 2 2 3 3 3 2 3 3 2 2 2 2 2 2 2 2 3 3 3 3 3 3 3 3 3 3 3 3 3 3
4 3 3 2 3 4 4 3 3 3 2 2 4 4 3 3 2 2 2 1 2 1 1 2 2 1 2 2 2 2 2 3 3 3 3 3 3 3 3 3 3 3 3 3
3 3 3 3 2 3 3 2 1 1 0 1 2 3 3 2 2 1 1 2 2 1 1 1 1 1 2 2 2 2 3 3 3 2 2 3 3 3 3 3 4 3 3 3
3 2 3 2 2 2 2 1 1 1 1 1 2 2 2 2 2 2 1 1 1 2 1 1 1 2 2 2 2 2 3 3 3 3 3 3 3 3 3 3 3 3 3 3
3 2 2 2 1 2 2 1 1 2 2 1 1 1 1 1 1 0 1 1 1 1 1 1 1 1 1 1 2 2 2 2 2 2 2 2 2 2 2 3 3 3 3 4
3 3 3 3 3 1 1 2 3 3 3 2 2 2 1 1 1 1 1 1 2 2 1 0 0 0 0 0 1 2 2 2 2 2 2 2 3 3 3 3 3 3 3 3
2 2 2 2 1 1 1 1 2 1 2 2 2 2 2 2 2 2 2 2 2 1 1 1 1 0 1 1 1 1 1 2 2 2 2 2 3 3 3 3 3 3 3 3
2 2 2 2 3 2 1 1 1 1 1 2 1 1 2 2 2 2 2 1 1 1 1 1 1 1 1 1 1 1 1 1 1 1 2 2 2 2 2 3 2 2 2 2
Wind_Direction
206 208 154 156 166 162 161 172 174 211 211 243 239 227 221 193 164 148 156 162 170 177 181 180 182 178 173 171 162 156 148 148 157 148 143 137 130 113 98 91 96 99 88 68
37 36 140 102 147 171 175 169 175 160 233 258 269 134 160 187 182 178 186 184 181 184 185 184 185 186 179 170 164 155 156 164 162 151 150 147 142 117 101 87 81 80 76 74
204 304 70 280 223 180 171 186 167 188 221 171 101 202 208 205 196 199 204 198 190 193 194 194 189 187 181 170 157 155 163 162 158 156 161 164 153 124 121 113 94 81 68 67
123 100 192 238 249 162 140 115 141 147 171 168 197 220 222 190 188 204 203 195 194 193 197 191 176 167 160 150 153 160 167 169 169 169 174 167 149 146 143 119 115 105 89 77
123 149 248 281 237 162 147 238 194 146 134 91 111 63 354 320 177 200 207 206 205 194 173 156 156 157 150 150 154 164 177 182 187 181 174 166 165 168 159 138 131 135 131 137
126 146 211 234 269 260 116 253 267 161 157 133 93 84 267 279 210 202 164 163 151 128 124 137 152 152 151 161 170 184 190 189 185 178 173 177 177 173 157 153 170 167 149 143
144 181 250 259 289 94 151 228 251 189 182 162 176 208 239 251 189 173 144 124 118 116 124 147 147 145 158 169 190 198 183 169 161 167 173 176 165 161 157 162 163 171 180 203
144 170 242 294 88 153 210 234 175 181 194 179 202 215 201 149 149 130 109 106 114 118 123 132 139 145 156 180 183 157 166 168 170 174 182 177 163 168 168 171 182 193 198 234
183 205 243 253 193 207 166 145 207 200 242 189 208 230 233 218 192 163 140 135 138 141 139 141 147 152 167 186 157 151 160 178 181 181 184 173 174 176 178 186 197 209 210 228
231 275 289 298 324 16 104 133 220 215 221 203 217 226 229 212 200 195 188 174 164 154 163 189 190 180 184 168 150 150 166 179 179 177 179 176 180 185 190 200 205 211 215 224
277 289 330 321 302 296 351 37 65 27 280 234 216 229 223 208 204 205 208 206 190 189 195 206 204 205 184 163 156 162 170 178 184 182 177 181 187 204 213 220 213 210 220 216
217 221 204 250 265 262 267 301 299 332 315 283 239 228 220 213 214 209 208 208 204 202 205 208 197 205 201 178 170 169 171 178 182 185 181 188 191 204 230 224 228 223 222 215
225 229 224 257 273 254 231 244 255 251 245 270 272 240 220 226 226 212 207 207 206 206 207 204 201 207 206 192 178 176 181 188 189 188 190 197 201 202 222 262 237 226 223 216
247 215 279 273 266 268 248 258 277 285 271 255 251 235 211 219 225 221 220 218 207 197 198 198 203 218 209 191 182 185 188 192 192 196 200 204 210 214 212 212 232 252 241 227
266 231 231 259 276 290 297 297 309 303 297 299 286 228 201 193 208 224 221 196 178 180 198 200 209 224 197 185 182 184 186 189 191 197 205 210 212 213 218 219 224 234 235 230
262 279 254 254 274 293 305 288 258 267 268 264 255 239 219 206 203 212 207 183 172 191 202 202 219 232 201 186 183 186 189 190 188 192 199 205 207 213 224 230 230 228 226 222
219 249 250 263 274 277 273 261 248 252 255 249 246 237 211 182 179 193 207 201 194 195 198 201 218 234 218 201 192 197 193 192 193 197 206 208 212 223 227 223 227 228 230 216
228 232 231 233 244 260 267 263 257 256 247 244 239 217 200 189 195 204 198 149 110 54 311 272 253 216 224 215 202 199 191 196 201 203 208 209 219 223 221 219 224 229 236 214
247 244 250 253 250 249 254 259 260 252 247 239 212 219 218 201 191 183 162 142 156 213 268 269 220 189 223 230 205 186 193 201 204 204 204 209 216 219 217 218 222 224 219 206
273 261 258 263 266 255 252 259 264 260 249 225 206 195 193 195 177 161 155 183 219 220 217 217 205 209 226 228 207 197 200 203 203 203 200 201 211 216 216 218 220 220 217 214
300 290 288 281 276 271 261 259 263 262 258 207 179 184 193 192 171 158 159 216 275 248 195 192 203 223 233 220 198 203 200 199 200 202 204 209 216 222 224 225 226 222 217 216
323 322 312 301 297 298 295 283 262 244 138 135 151 156 156 162 161 159 195 214 228 201 185 197 209 215 218 200 200 197 198 199 200 199 200 206 214 220 226 229 229 229 226 222
318 306 306 302 288 290 326 6 87 112 112 137 152 157 173 186 177 167 234 282 177 154 145 181 199 192 186 183 198 197 198 202 205 205 208 212 217 221 227 234 235 233 232 231
338 336 330 333 27 61 51 24 53 79 93 102 132 152 146 127 55 20 123 133 112 117 105 181 177 176 166 195 199 195 196 206 209 207 210 219 223 227 233 238 238 237 236 232
350 355 7 27 40 36 37 58 61 55 61 58 47 43 51 102 134 129 101 107 109 99 62 58 100 95 90 232 208 199 199 208 207 201 209 219 230 237 239 238 237 237 234 231
3 7 14 22 20 6 10 55 82 74 80 68 41 31 43 53 79 91 87 89 90 84 57 34 16 16 322 271 228 208 208 210 204 206 214 221 230 233 236 237 239 236 234 231
17 27 36 33 26 22 29 46 58 54 85 100 61 26 48 59 63 64 69 72 78 69 42 27 10 332 296 281 261 238 216 211 221 230 226 226 229 236 245 247 245 241 237 233